This demonstration page uses our WeatherBlox Daily Observations layout. Learn more.

Left ArrowRight Arrow

34.74481, -87.66753

Hourly Observations for October 8, 2021

Temp ( °F °C ) Dew Point ( °F °C ) Humidity (%) Winds ( mph kmh ) Pressure ( in mb ) Visibility ( mi km ) Precip ( " mm )
12:53 am 00:53 Clear with Mist and Fog 65 18.3 61 16.1 87 87 Calm 30.05 1018 6 10 0.00 0.00
1:16 am 01:16 Clear with Mist and Fog 64 17.8 61 16.1 90 90 Calm 30.06 1018 2 3 0.00 0.00
1:26 am 01:26 Clear with Fog 63 17.2 60 15.6 90 90 Calm 30.06 1018 1 1 0.00 0.00
1:41 am 01:41 Mostly Cloudy with Fog 63 17.2 60 15.6 90 90 Calm 30.05 1018 1 1 0.00 0.00
1:53 am 01:53 Mostly Cloudy with Fog 63 17.2 60 15.6 90 90 SE 3 6 30.05 1018 0 0 0.00 0.00
2:07 am 02:07 Mostly Cloudy with Mist and Fog 63 17.2 60 15.6 90 90 Calm 30.06 1018 1 2 0.00 0.00
2:11 am 02:11 Partly Cloudy with Mist and Fog 63 17.2 60 15.6 90 90 Calm 30.06 1018 2 3 0.00 0.00
2:15 am 02:15 Mostly Cloudy with Mist and Fog 63 17.2 60 15.6 90 90 Calm 30.06 1018 1 2 0.00 0.00
2:28 am 02:28 Clear with Mist and Fog 63 17.2 60 15.6 90 90 Calm 30.06 1018 1 2 0.00 0.00
2:36 am 02:36 Clear with Mist and Fog 63 17.2 60 15.6 90 90 Calm 30.06 1018 1 1 0.00 0.00
2:45 am 02:45 Clear with Mist and Fog 63 17.2 60 15.6 90 90 Calm 30.06 1018 1 2 0.00 0.00
2:53 am 02:53 Clear with Mist and Fog 63 17.2 60 15.6 90 90 Calm 30.06 1018 1 2 0.00 0.00
3:04 am 03:04 Mostly Cloudy with Fog 63 17.2 60 15.6 90 90 Calm 30.06 1018 1 1 0.00 0.00
3:53 am 03:53 Mostly Cloudy with Mist and Fog 63 17.2 60 15.6 90 90 Calm 30.06 1018 1 2 0.00 0.00
4:01 am 04:01 Mostly Cloudy with Fog 63 17.2 60 15.6 90 90 Calm 30.07 1018 1 1 0.00 0.00
4:16 am 04:16 Mostly Cloudy with Fog 64 17.8 61 16.1 90 90 Calm 30.07 1018 0 0 0.00 0.00
4:53 am 04:53 Mostly Cloudy with Fog 64 17.8 61 16.1 90 90 Calm 30.07 1018 0 0 0.00 0.00
5:22 am 05:22 Mostly Cloudy with Fog 63 17.2 61 16.1 93 93 Calm 30.08 1019 1 1 0.00 0.00
5:37 am 05:37 Mostly Cloudy with Fog 64 17.8 60 15.6 87 87 Calm 30.08 1019 0 0 0.00 0.00
5:53 am 05:53 Mostly Cloudy with Fog 64 17.8 61 16.1 90 90 Calm 30.08 1019 0 0 0.00 0.00
6:04 am 06:04 Mostly Cloudy with Fog 64 17.8 61 16.1 90 90 Calm 30.09 1019 1 1 0.00 0.00
6:15 am 06:15 Mostly Cloudy with Fog 64 17.8 61 16.1 90 90 Calm 30.09 1019 0 0 0.00 0.00
6:48 am 06:48 Mostly Cloudy with Mist and Fog 63 17 61 16 94 94 Calm 30.09 1019 1 1 0.00 0.00
6:53 am 06:53 Mostly Cloudy with Mist and Fog 63 17.2 60 15.6 90 90 Calm 30.09 1019 1 2 0.00 0.00
7:18 am 07:18 Cloudy with Fog 63 17.2 60 15.6 90 90 Calm 30.09 1019 0 0 0.00 0.00
7:53 am 07:53 Mostly Cloudy with Fog 64 17.8 61 16.1 90 90 Calm 30.10 1019 0 0 0.00 0.00
8:53 am 08:53 Mostly Cloudy with Mist and Fog 65 18.3 63 17.2 93 93 Calm 30.11 1020 1 1 0.00 0.00
9:01 am 09:01 Cloudy with Mist and Fog 65 18.3 63 17.2 93 93 Calm 30.11 1020 2 3 0.00 0.00
9:09 am 09:09 Cloudy with Mist and Fog 66 18.9 63 17.2 90 90 Calm 30.12 1020 3 5 0.00 0.00
9:27 am 09:27 Cloudy with Mist and Fog 66 18.9 63 17.2 90 90 Calm 30.12 1020 3 4 0.00 0.00
9:38 am 09:38 Cloudy with Mist and Fog 67 19.4 64 17.8 91 91 ESE 3 6 30.12 1020 4 6 0.00 0.00
9:53 am 09:53 Mostly Cloudy with Mist and Fog 68 20 64 17.8 87 87 Calm 30.11 1020 5 8 0.00 0.00
10:03 am 10:03 Mostly Sunny 68 20 64 17.8 87 87 Calm 30.12 1020 7 11 0.00 0.00
10:53 am 10:53 Sunny 76 24.4 65 18.3 69 69 Calm 30.11 1020 10 16 0.00 0.00
11:53 am 11:53 Sunny 81 27.2 63 17.2 54 54 WSW 3 6 30.09 1019 10 16 0.00 0.00
12:53 pm 12:53 Mostly Sunny 83 28.3 62 16.7 49 49 WSW 6 9 30.07 1018 10 16 0.00 0.00
1:53 pm 13:53 Mostly Sunny 83 28.3 62 16.7 49 49 VRB 3 6 30.04 1017 10 16 0.00 0.00
2:53 pm 14:53 Mostly Cloudy 85 29.4 62 16.7 46 46 VRB 3 6 30.02 1017 10 16 0.00 0.00
3:53 pm 15:53 Sunny 82 27.8 61 16.1 49 49 WNW 7 11 30.02 1017 10 16 0.00 0.00
4:53 pm 16:53 Sunny 84 28.9 61 16.1 46 46 NW 6 9 30.01 1016 10 16 0.00 0.00
5:53 pm 17:53 Sunny 82 27.8 62 16.7 51 51 Calm 30.01 1016 10 16 0.00 0.00
6:53 pm 18:53 Clear 74 23.3 64 17.8 71 71 Calm 30.02 1017 10 16 0.00 0.00
7:53 pm 19:53 Clear 72 22.2 64 17.8 76 76 Calm 30.02 1017 10 16 0.00 0.00
8:53 pm 20:53 Clear 69 20.6 64 17.8 84 84 SE 3 6 30.03 1017 8 13 0.00 0.00
9:53 pm 21:53 Clear 68 20 64 17.8 87 87 Calm 30.03 1017 8 13 0.00 0.00
10:53 pm 22:53 Clear with Mist and Fog 67 19.4 63 17.2 87 87 Calm 30.03 1017 4 6 0.00 0.00
11:33 pm 23:33 Clear with Mist and Fog 66 18.9 63 17.2 90 90 Calm 30.04 1017 2 3 0.00 0.00
11:42 pm 23:42 Clear with Mist and Fog 67 19.4 63 17.2 87 87 Calm 30.03 1017 1 1 0.00 0.00
11:46 pm 23:46 Clear with Mist and Fog 66 18.9 63 17.2 90 90 Calm 30.03 1017 3 4 0.00 0.00
11:53 pm 23:53 Clear with Mist and Fog 67 19.4 63 17.2 87 87 Calm 30.03 1017 3 5 0.00 0.00
11:55 pm 23:55 Clear with Mist and Fog 67 19.4 63 17.2 87 87 Calm 30.03 1017 2 3 0.00 0.00

Powered by AerisWeather